Location: Panasowaka
(50.6000°N, 22.8167°E)
Time: 17:54:03
(UTC+00:00)

Daily predictions for brighter satellites

Satellite Brightness Start Highest point End
(mag) Time Altitude Azimuth Time Altitude Azimuth Time Altitude Azimuth
GEOS 3 Rocket 4.1 19:17:47 10° NE 19:22:54 43° ESE 19:28:00 10° SSW
Cosmos 2278 Rocket 3.5 19:19:53 10° NNW 19:24:56 31° NE 19:29:58 10° ESE
Gblst 52 Del rocket 4.3 19:19:41 10° WNW 19:25:17 89° SSW 19:31:28 10° ESE
ATLAS 5 CENTAUR R/B 1.7 19:25:24 10° SSW 19:29:24 48° SE 19:33:55 10° NE
Cosmos 1844 Rocket 2.8 19:24:44 10° NNW 19:30:19 76° WSW 19:35:52 10° SSE
Meteor 2-10 Rocket 4.2 19:29:57 10° NNW 19:34:55 55° W 19:40:01 10° S
USA 245 3.3 19:31:47 10° S 19:35:08 77° WSW 19:39:25 10° NNW
Cosmos 1400 Rocket 2.8 19:33:26 10° NNW 19:37:28 88° W 19:41:24 10° S
Cosmos 1758 Rocket 3.6 19:33:58 10° S 19:38:28 83° E 19:42:59 10° NNE
SPOT 5 3.2 19:35:09 10° SSE 19:40:04 57° ENE 19:44:46 10° N
Cosmos 2181 Rocket 4.2 19:36:38 10° N 19:42:58 62° ENE 19:49:09 10° SSE
Spot 2 Rocket 3.8 19:37:55 10° S 19:42:59 69° WSW 19:48:06 10° NNW
Lacrosse 5 rocket 3.0 19:39:15 10° W 19:43:14 37° NNW 19:47:01 10° ENE
BREEZE-M DEB (TANK) 4.3 19:41:02 10° SSW 19:43:42 15° SSE 19:45:22 10° ESE
USA 81 4.5 19:40:00 10° SSE 19:45:00 47° E 19:50:04 10° NNE
ATLAS 5 CENTAUR R/B 3.9 19:43:25 10° W 19:45:40 20° NNW 19:47:20 10° NNE
Cosmos 1745 Rocket 4.4 19:42:17 10° SSW 19:48:26 69° WNW 19:54:45 10° N
Landsat 7 4.2 19:44:04 10° S 19:48:47 65° WSW 19:53:33 10° NNW
USA 267 3.5 19:48:17 10° ESE 19:54:51 76° NNE 20:01:25 10° WNW
SPOT 1/Viking Rocket 3.8 19:52:02 10° S 19:57:09 68° WSW 20:02:20 10° NNW
Alouette 2 Rocket 4.0 19:56:56 10° NNW 20:00:37 57° WSW 20:05:25 10° S
Cosmos 1953 Rocket 3.5 19:57:14 10° S 20:01:33 80° E 20:05:55 10° NNE
Cosmos 2322 Rocket 3.6 19:58:29 10° WSW 20:03:49 43° NW 20:09:12 10° NNE
Cosmos 2084 3.5 20:03:16 10° NW 20:07:45 86° SW 20:11:33 14° SE
Cosmos 1328 4.4 20:04:04 10° SSW 20:07:58 58° WNW 20:11:56 10° N
Cosmos 1842 Rocket 3.9 20:04:03 10° N 20:08:20 53° ENE 20:11:52 14° SSE
SAR-Lupe-2 3.7 20:05:14 10° NNE 20:08:50 80° WNW 20:12:25 10° SSW
Cosmos 1455 4.3 20:08:19 10° NW 20:11:25 23° W 20:14:30 10° SW
Cosmos 1825 Rocket 4.4 20:13:03 10° SSW 20:17:22 51° WNW 20:21:46 10° N
ATLAS CENTAUR R/B 1.2 20:15:57 10° NW 20:19:39 66° SW 20:22:16 17° SSE
COSMOS 2428 2.7 20:17:48 10° SSW 20:23:22 63° ESE 20:29:00 10° NE
NOSS 3-4 (A) 4.1 20:18:06 10° NW 20:24:52 65° NE 20:32:22 10° ESE
NOSS 3-4 (C) 4.1 20:18:12 10° NW 20:24:58 64° NE 20:32:28 10° ESE
Cosmos 1825 4.3 20:23:21 11° ESE 20:25:00 13° E 20:26:53 10° NE
Cosmos 2322 3.8 20:21:36 10° SSW 20:27:20 81° WNW 20:33:07 10° NNE
NOSS 0 Rocket 4.4 20:23:36 12° S 20:28:54 40° ESE 20:34:36 10° NE
Meteor 1-27 4.5 20:24:49 10° NNW 20:30:31 71° W 20:35:46 13° S
Cosmos 1869 3.3 20:26:59 10° N 20:30:58 72° ENE 20:33:50 18° SSE
Terra 2.1 20:31:40 14° S 20:35:45 65° WSW 20:40:31 10° NNW
NOSS 3-3 (A) 3.9 20:30:12 10° SSW 20:36:03 68° SE 20:42:43 10° NE
NOSS 3-3 (C) 3.9 20:30:19 10° SSW 20:36:09 68° SE 20:42:49 10° NE
Cosmos 2237 Rocket 2.9 20:33:12 16° SSE 20:37:07 35° ESE 20:42:14 10° NE
Atlas Centaur 2 4.3 20:36:05 10° SSW 20:38:25 12° S 20:38:46 12° S
Cosmos 2219 Rocket 2.2 20:33:53 10° SSW 20:39:28 88° ESE 20:45:08 10° NNE
Cosmos 2360 Rocket 3.6 20:36:24 10° WSW 20:41:44 41° NW 20:47:07 10° NNE
Cosmos 1538 Rocket 4.1 20:36:49 10° SSW 20:42:11 87° WNW 20:47:33 10° NNE
Cosmos 2184 Rocket 4.0 20:42:25 13° S 20:48:04 79° E 20:54:24 10° NNE
Meteor 2-2 Rocket 4.3 20:42:45 10° NNW 20:48:38 83° W 20:53:04 18° S
Cosmos 2333 Rocket 2.4 20:43:38 10° SW 20:49:20 77° WNW 20:55:06 10° NNE
Thor Agena Rocket 4.2 20:44:54 10° NNE 20:49:41 38° E 20:52:43 20° SSE
Cosmos 1315 Rocket 3.9 20:47:07 10° NNW 20:50:57 39° W 20:54:13 13° SSW
ATLAS 2AS CENTAUR R/B 3.0 20:45:10 10° NW 20:52:55 80° NE 20:59:01 15° SE
Cosmos 2221 2.9 20:55:06 10° NNW 20:59:26 58° W 21:02:29 18° S
Cosmos 1371 Rocket 4.2 20:54:59 10° NNW 21:00:13 64° ENE 21:03:56 20° SE
USA 215 3.2 20:57:32 10° ENE 21:04:08 82° SSE 21:10:43 10° SW
Iridium 2 3.9 21:01:48 10° N 21:05:36 59° E 21:07:33 26° SSE
EO 1 Del DPAF 3.7 21:04:45 10° NNE 21:08:23 43° E 21:10:00 27° SSE
Cosmos 1892 2.6 21:07:01 22° S 21:09:21 90° SW 21:13:11 10° N
Cosmos 2278 Rocket 2.5 21:03:49 10° NW 21:09:24 61° WSW 21:13:09 21° S
Cosmos 2297 4.3 21:05:06 10° NNW 21:10:43 52° NE 21:15:17 15° SE
Cosmos 2112 Rocket 4.3 21:08:06 20° S 21:11:37 54° ESE 21:16:51 10° NNE
ATLAS 5 CENTAUR R/B 3.4 21:10:09 10° W 21:14:11 36° NNW 21:18:47 10° NE
Cosmos 1606 3.8 21:11:45 10° N 21:15:20 34° ENE 21:17:19 21° SE
Aureole 2 Rocket 3.1 21:13:14 10° N 21:15:51 34° ENE 21:17:00 24° ESE
Cosmos 158 Rocket 3.9 21:13:10 21° S 21:16:19 61° ESE 21:21:11 10° NNE
Cosmos 1943 Rocket 3.6 21:12:26 10° NNW 21:17:35 33° NE 21:22:40 10° ESE
SL-16 R/B 3.2 21:18:56 21° SE 21:21:27 30° ESE 21:26:19 10° NE
Spot 4 3.8 21:20:00 24° SSE 21:22:54 86° WSW 21:27:42 10° NNW
Lacrosse 5 rocket 2.9 21:19:17 10° WNW 21:23:07 35° N 21:26:45 10° ENE
Cosmos 2056 Rocket 3.6 21:18:45 10° NNW 21:24:12 84° ENE 21:27:39 23° SSE
Nadezhda 3 Rocket 4.2 21:18:19 10° NNW 21:24:42 73° W 21:29:11 20° S
Cosmos 2058 3.3 21:25:00 19° SSW 21:27:54 60° WNW 21:32:01 10° N
Cosmos 2154 Rocket 4.0 21:23:03 17° SSW 21:27:56 83° W 21:34:12 10° N
Cosmos 1408 2.5 21:29:05 28° SSW 21:30:51 82° W 21:34:26 10° N
Cosmos 2341 Rocket 4.1 21:26:53 22° SSE 21:30:56 63° E 21:37:04 10° NNE
USA 267 3.6 21:34:05 22° SSE 21:38:08 47° SW 21:44:28 10° WNW
Cosmos 1076 Rocket 4.1 21:36:08 18° SSW 21:39:09 53° WNW 21:43:21 10° N
Cosmos 1680 Rocket 3.6 21:35:42 16° SSW 21:39:59 83° WNW 21:45:21 10° NNE
CZ-4C R/B 3.8 21:39:56 10° NW 21:46:24 47° NNE 21:53:59 10° ESE
EO 1 Delta rocket 4.3 21:43:37 10° N 21:48:35 77° WNW 21:52:50 20° SSW
Cosmos 2151 2.9 21:47:18 28° S 21:49:30 90° WNW 21:53:49 10° N
COSMOS 2455 3.3 21:43:57 10° NNW 21:49:57 59° NE 21:55:18 13° SE
SL-8 Rocket 4.1 21:46:21 24° S 21:50:09 65° E 21:56:15 10° NNE
Helios 1A 3.7 21:48:16 23° SE 21:50:31 46° ENE 21:54:32 10° N
Cosmos 1452 Rocket 4.0 21:46:01 10° NNW 21:51:14 56° ENE 21:54:48 20° SE
IRIDIUM 114 4.5 21:52:07 27° SSE 21:54:59 65° E 22:00:10 10° N
Cosmos 1727 Rocket 4.4 21:53:05 10° N 21:59:13 58° ENE 22:03:21 22° SSE
Cosmos 1825 2.6 21:58:08 27° SSW 22:00:01 58° WNW 22:03:47 10° N
ALOS 2 2.6 21:58:03 30° S 22:00:09 72° WSW 22:04:34 10° NNW
Cosmos 1933 3.3 21:56:39 10° N 22:00:42 80° E 22:02:24 34° SSE
Cosmos 1408 Rocket 4.0 21:58:51 29° SSE 22:00:43 48° E 22:04:58 10° NNE
Cosmos 1340 3.2 21:59:38 33° SE 22:00:50 45° E 22:04:28 10° NNE
Cosmos 1151 Rocket 3.0 21:56:52 10° N 22:01:14 87° E 22:03:13 32° SSE
Cosmos 2369 Rocket 3.1 21:56:39 10° NNW 22:02:02 45° NE 22:07:04 12° ESE
Cosmos 1980 4.2 21:57:04 10° SW 22:02:39 60° NW 22:08:16 10° NNE
IRIDIUM 103 4.3 22:01:14 27° S 22:04:06 77° E 22:09:21 10° N
APEX 2.8 22:01:45 10° NNW 22:04:27 56° NE 22:05:06 41° ESE
Cosmos 44 3.1 22:05:15 31° S 22:07:01 55° SE 22:11:23 10° NE
COSMOS 2428 4.5 22:03:05 10° WSW 22:08:04 31° NW 22:13:06 10° NNE
GP-B 3.1 22:04:47 10° N 22:09:14 80° W 22:11:23 30° S
Cosmos 371 Rocket 3.2 22:04:23 10° NNW 22:09:16 85° WSW 22:11:47 29° SSE
NOSS 3-4 (A) 4.4 22:09:11 10° NW 22:15:40 41° WSW 22:19:46 23° S
NOSS 3-4 (C) 4.4 22:09:17 10° NW 22:15:47 42° WSW 22:19:55 23° S
Helios 1B rocket 4.0 22:14:13 10° NE 22:17:33 23° E 22:19:04 19° SE
Nimbus 7 Rocket 4.5 22:12:22 10° NNE 22:18:20 77° WNW 22:22:22 21° SSW
SL-4 R/B 1.4 22:19:54 42° NW 22:19:54 42° NW 22:21:29 10° NNW
Cosmos 2237 Rocket 3.0 22:15:31 10° SW 22:21:02 49° NW 22:26:35 10° NNE
Genesis I 3.8 22:18:36 14° WSW 22:21:48 57° NW 22:25:40 10° NE
Cosmos 1782 3.1 22:17:56 10° N 22:21:52 59° ENE 22:23:34 31° SE
IRIDIUM 106 4.4 22:19:31 27° SSW 22:22:26 77° W 22:27:40 10° N
CREW DRAGON DEMO-1 DEB 2.7 22:22:53 55° SSW 22:23:17 62° SSE 22:26:19 10° ENE
Cosmos 2344 3.6 22:16:29 10° SW 22:23:57 89° NW 22:32:21 10° NE
Cosmos 2219 Rocket 4.4 22:19:43 10° W 22:24:12 24° NW 22:28:41 10° NNE
Cosmos 1346 Rocket 2.9 22:28:04 35° SSE 22:29:28 59° E 22:33:21 10° NNE
CZ-2D R/B 4.4 22:31:54 10° ENE 22:33:41 12° E 22:35:29 10° ESE
RESURS DK-1 3.1 22:36:15 10° NNW 22:40:19 50° NE 22:43:23 16° SE
Cosmos 1515 Rocket 3.6 22:37:04 10° NNW 22:41:23 65° W 22:43:15 32° SSW
CZ-4 R/B 4.2 22:37:48 10° NNE 22:42:22 50° E 22:44:35 28° SSE
BREEZE-M DEB (TANK) 3.8 22:40:47 10° W 22:41:22 13° WSW 22:41:22 13° WSW
ATLAS 2AS CENTAUR R/B 3.8 22:36:54 10° NW 22:43:11 30° WSW 22:46:25 21° SSW
USA 215 3.9 22:40:37 10° ENE 22:47:01 57° NNW 22:53:24 10° W
Aureole 2 Rocket 4.3 22:47:42 10° WNW 22:49:00 13° W 22:49:00 13° W
Gbstr 26 Del rocket 3.1 22:49:28 37° S 22:50:21 43° SSE 22:54:26 10° ENE
Cosmos 1606 4.4 22:47:48 10° NW 22:50:54 23° W 22:52:19 19° WSW
Cosmos 2278 Rocket 4.5 22:51:40 10° W 22:52:18 10° W 22:52:55 10° W
Cosmos 2218 Rocket 4.5 22:50:54 20° SSW 22:55:13 56° WNW 23:01:26 10° N
Cosmos 304 Rocket 3.8 22:50:52 10° NNW 22:55:41 67° WSW 22:58:03 29° S
Cosmos 2228 Rocket 3.1 22:52:29 10° NNW 22:57:06 81° W 22:59:19 30° S
Cosmos 1943 4.0 22:56:06 24° SSE 22:58:57 39° ESE 23:04:12 10° NE
Cosmos 1862 3.9 22:58:33 29° SSE 23:00:12 47° E 23:04:03 10° NNE
Cosmos 1943 Rocket 2.4 22:56:05 10° NW 23:01:38 56° WSW 23:04:40 26° S
Landsat 4 3.8 22:58:36 10° N 23:02:23 70° WNW 23:03:59 33° SSW
Cosmos 1633 2.8 23:01:11 34° SW 23:02:31 60° WNW 23:06:07 10° N
Lacrosse 5 rocket 1.1 22:58:38 10° WNW 23:02:39 88° NNE 23:06:18 11° ESE
CRYOSAT 2 4.4 22:57:58 10° N 23:02:51 79° E 23:05:26 28° S
Cosmos 494 Rocket 4.4 23:00:18 26° SSE 23:02:54 50° ESE 23:07:53 10° NNE
SL-16 R/B 2.7 23:00:46 16° SW 23:05:17 56° NW 23:10:55 10° NNE
Cosmos 1821 Rocket 3.9 23:05:52 25° S 23:09:38 85° E 23:15:46 10° N
Cosmos 2123 Rocket 4.2 23:04:39 10° N 23:10:52 68° ENE 23:15:27 19° SSE
BREEZE-M DEB (TANK) 4.4 23:05:05 10° SW 23:13:45 34° SSE 23:17:21 10° E
Cosmos 1633 Rocket 4.5 23:11:22 17° SE 23:13:56 29° E 23:17:46 10° NNE
Cosmos 1743 Rocket 3.8 23:12:36 28° SSW 23:14:43 59° WNW 23:19:02 10° N
Sich 1 3.4 23:15:28 26° SSE 23:17:37 53° E 23:21:52 10° NNE
Cosmos 1331 Rocket 4.0 23:14:55 10° NNW 23:20:15 76° WSW 23:23:39 23° SSE
Cosmos 1048 Rocket 4.1 23:19:32 24° SSW 23:22:47 77° WNW 23:28:05 10° NNE
Meteor 1-29 2.9 23:24:32 10° NNE 23:27:55 75° ESE 23:29:10 36° S
Cosmos 405 4.4 23:25:18 10° NW 23:28:14 24° W 23:29:08 22° WSW
Meteor 1-10 Rocket 4.3 23:26:54 10° NNW 23:32:27 66° W 23:35:50 24° S
SL-4 R/B 3.3 23:32:31 15° ESE 23:32:53 15° ESE 23:34:41 10° ENE
Iridium 4 Rocket 4.4 23:28:48 17° SSE 23:33:16 52° E 23:38:43 10° NNE
PSLV R/B 3.9 23:30:08 10° N 23:34:15 54° WNW 23:36:34 24° SW
Cosmos 292 Rocket 4.2 23:29:46 10° NNW 23:34:34 63° ENE 23:39:10 11° SE
Meteor 2-6 Rocket 4.5 23:29:30 10° NNW 23:34:50 52° W 23:37:54 24° SSW
Cosmos 389 Rocket 2.6 23:31:43 10° N 23:35:15 69° ENE 23:37:05 26° SSE
CZ-4C R/B 2.9 23:28:24 10° NW 23:35:28 69° SW 23:43:38 10° SSE
COSMOS 2455 3.6 23:30:17 10° NW 23:35:37 34° WSW 23:38:24 23° SSW
Cosmos 1110 Rocket 4.3 23:32:10 10° NNW 23:37:17 51° WSW 23:40:15 24° S
SL-16 R/B 2.9 23:31:37 10° SSE 23:37:46 65° ENE 23:43:57 10° NNW
Cosmos 1605 Rocket 4.4 23:34:31 18° SSE 23:39:10 60° E 23:45:22 10° NNE
Cosmos 1603 3.7 23:36:25 23° SSW 23:40:05 89° ESE 23:45:52 10° NNE
IRAS Rocket 4.2 23:37:09 17° SSE 23:41:25 90° WSW 23:46:57 10° NNW
Cosmos 1269 Rocket 4.1 23:39:58 24° S 23:43:11 68° ESE 23:48:27 10° NNE
Resurs 1-4 Rocket 2.9 23:39:47 10° NNE 23:44:51 43° E 23:48:45 16° SSE
Cosmos 2369 Rocket 2.9 23:40:53 10° NW 23:45:59 37° WSW 23:48:49 23° SSW
Cosmos 1666 Rocket 3.6 23:44:14 24° S 23:46:48 73° E 23:51:12 10° NNE
SeaSat 1 2.9 23:43:31 10° NE 23:48:20 50° ESE 23:51:20 22° S
Meteor 2-20 Rocket 4.4 23:44:20 10° NNW 23:50:30 84° W 23:55:17 18° S
ISS -2.8 23:51:00 29° SSE 23:51:33 31° SSE 23:54:34 10° E
Helios 1B rocket 3.3 23:49:05 10° N 23:52:59 41° WNW 23:55:23 20° SW
